Location: Chiroubles
(46.1812°N, 4.6660°E)
Time: 06:34:42
(UTC+00:00)

Transit 4A - Pass Details

Date: 05 December 2020
Orbit: 864 x 980 km, 66.8° (Epoch: 25 January)

Event Time Altitude Azimuth Distance (km) Brightness Sun altitude
Rises 05:13:21 0° 179° (S) 3,616 11.2 -19.1°
Reaches altitude 10° 05:16:07 10° 170° (S) 2,689 10.6 -18.6°
Maximum altitude 05:21:35 32° 109° (ESE) 1,607 9.9 -17.7°
Drops below altitude 10° 05:27:08 10° 49° (NE) 2,738 10.8 -16.8°
Sets 05:29:58 0° 40° (NE) 3,691 11.4 -16.3°
